TIANTUO 2 (40144 NORAD) Tracking and Keplerian Element Data

This shows tracking and keplerian element data for the satellite.

Feedback or suggestion? Click here.




ElementValue
Catalog40144
NameTIANTUO 2
Epoch Orbit54660
Epoch Day160.18809568
Epoch Year2024
RAAN241.2536
Inclination97.123
Eccentricity0.0007369
Argument of Perigee86.3026
Mean Anonmoly273.9074
Mean Motion15.60797854
Decay Rate0.0003992
L11 40144U 14053B 24160.18809568 .00039920 00000+0 47861-3 0 9995
L22 40144 97.1230 241.2536 0007369 86.3026 273.9074 15.60797854546605



Live tracking and technical data element details for TIANTUO 2 (NORAD 40144). TIANTUO 2 can be tracked NOW for your location showing map with azimuth and elevation plus other details from your city location.







IsCatalogInMostPopularTable: catalog: 40144, numindb: 604
Update: records affected: 1



GetName: 40144 TIANTUO 2

Hit Count: updated at: Sun, 23 Jun 2024 00:47:06 GMT